Show Low, AZ

10:02 AM MST on April 20, 2018 (GMT -0700)
Show Low Municipal

Weather History for KSOW - March, 2014

Change the Weather History Date:

Tuesday, March 18, 2014

  Actual Average Record
Temperature  
Mean Temperature 36 °F -  
Max Temperature 48 °F 57 °F 74 °F (1967)
Min Temperature 24 °F 34 °F 14 °F (1971)
Degree Days  
Heating Degree Days 29    
Moisture  
Dew Point 3 °F    
Average Humidity 25    
Maximum Humidity 43    
Minimum Humidity 12    
Precipitation  
Precipitation 0.00 in - - ()
Sea Level Pressure  
Sea Level Pressure 29.97 in    
Wind  
Wind Speed 9 mph (North)    
Max Wind Speed 17 mph    
Max Gust Speed 24 mph    
Visibility 10 miles    
Events      
Averages and records for this station are not official NWS values.
T = Trace of Precipitation, MM = Missing Value Source: NWS Daily Summary

Daily Weather History Graph

Daily Weather History Graph

Search for Another Location

Airport or City:

Astronomy

Mar. 18, 2014 Rise Set
Actual Time 6:26 AM MST 6:30 PM MST
Civil Twilight 6:01 AM MST 6:55 PM MST
Nautical Twilight 5:32 AM MST 7:24 PM MST
Astronomical Twilight 5:02 AM MST 7:53 PM MST
Moon 8:43 PM MST (3/18) 7:23 AM MST (3/18)
Length of Visible Light 12h 53m
Length of Day
12h 03m
Waning Gibbous, 96% of the Moon is Illuminated
Mar 18
Waning Gibbous
Mar 23
Last Quarter
Mar 30
New
Apr 7
First Quarter
Apr 15
Full

Hourly Weather History & Observations

Time (MST) Temp. Windchill Dew Point Humidity Pressure Visibility Wind Dir Wind Speed Gust Speed Precip Events Conditions
12:15 AM 44.6 °F 37.2 °F 8.6 °F 23% 29.80 in 10.0 mi SSW 17.3 mph - N/A   Clear
12:35 AM 44.6 °F 37.8 °F 8.6 °F 23% 29.80 in 10.0 mi SSW 15.0 mph - N/A   Clear
12:55 AM 44.6 °F 37.4 °F 8.6 °F 23% 29.81 in 10.0 mi SSW 16.1 mph - N/A   Clear
1:15 AM 41.0 °F 33.9 °F 8.6 °F 26% 29.81 in 10.0 mi SSW 12.7 mph - N/A   Clear
1:35 AM 41.0 °F 34.7 °F 8.6 °F 26% 29.82 in 10.0 mi SSW 10.4 mph - N/A   Clear
1:55 AM 41.0 °F 32.8 °F 10.4 °F 29% 29.85 in 10.0 mi NNW 16.1 mph 24.2 mph N/A   Clear
2:15 AM 39.2 °F 32.0 °F 10.4 °F 31% 29.86 in 10.0 mi NNW 11.5 mph 17.3 mph N/A   Clear
2:35 AM 37.4 °F 32.1 °F 10.4 °F 33% 29.86 in 10.0 mi NW 6.9 mph - N/A   Clear
2:55 AM 35.6 °F 30.7 °F 10.4 °F 35% 29.87 in 10.0 mi WNW 5.8 mph - N/A   Clear
3:15 AM 35.6 °F 30.7 °F 10.4 °F 35% 29.86 in 10.0 mi NW 5.8 mph - N/A   Clear
3:35 AM 33.8 °F 27.7 °F 10.4 °F 38% 29.87 in 10.0 mi WNW 6.9 mph - N/A   Clear
3:55 AM 32.0 °F 24.8 °F 10.4 °F 41% 29.87 in 10.0 mi NW 8.1 mph - N/A   Clear
4:15 AM 32.0 °F 24.8 °F 10.4 °F 41% 29.88 in 10.0 mi NW 8.1 mph - N/A   Clear
4:35 AM 32.0 °F 25.6 °F 10.4 °F 41% 29.89 in 10.0 mi NW 6.9 mph - N/A   Clear
4:55 AM 32.0 °F 27.5 °F 8.6 °F 38% 29.90 in 10.0 mi NW 4.6 mph - N/A   Clear
5:15 AM 28.4 °F 22.2 °F 8.6 °F 43% 29.90 in 10.0 mi NNW 5.8 mph - N/A   Clear
5:35 AM 28.4 °F 23.3 °F 6.8 °F 40% 29.91 in 10.0 mi North 4.6 mph - N/A   Clear
5:55 AM 28.4 °F - 6.8 °F 40% 29.92 in 10.0 mi Calm Calm - N/A   Clear
6:15 AM 28.4 °F 21.2 °F 6.8 °F 40% 29.92 in 10.0 mi NNW 6.9 mph - N/A   Clear
6:35 AM 26.6 °F 20.0 °F 6.8 °F 43% 29.94 in 10.0 mi North 5.8 mph - N/A   Clear
6:55 AM 24.8 °F 19.1 °F 5.0 °F 43% 29.95 in 10.0 mi ENE 4.6 mph - N/A   Clear
7:15 AM 26.6 °F - 6.8 °F 43% 29.96 in 10.0 mi Calm Calm - N/A   Clear
7:35 AM 28.4 °F 22.2 °F 6.8 °F 40% 29.97 in 10.0 mi North 5.8 mph - N/A   Clear
7:55 AM 30.2 °F 23.4 °F 6.8 °F 37% 29.98 in 10.0 mi North 6.9 mph - N/A   Clear
8:15 AM 32.0 °F 23.6 °F 5.0 °F 32% 29.99 in 10.0 mi North 10.4 mph - N/A   Clear
8:35 AM 32.0 °F 26.4 °F 5.0 °F 32% 29.99 in 10.0 mi North 5.8 mph - N/A   Clear
8:55 AM 33.8 °F 26.4 °F 5.0 °F 30% 30.00 in 10.0 mi NNE 9.2 mph - N/A   Clear
9:15 AM 35.6 °F 28.0 °F 5.0 °F 28% 30.00 in 10.0 mi North 10.4 mph - N/A   Clear
9:35 AM 35.6 °F 28.6 °F 5.0 °F 28% 30.00 in 10.0 mi North 9.2 mph - N/A   Clear
9:55 AM 37.4 °F 29.3 °F 1.4 °F 22% 30.00 in 10.0 mi North 12.7 mph 19.6 mph N/A   Clear
10:15 AM 37.4 °F 29.8 °F 1.4 °F 22% 30.01 in 10.0 mi North 11.5 mph - N/A   Clear
10:35 AM 39.2 °F 33.0 °F 1.4 °F 21% 30.01 in 10.0 mi North 9.2 mph - N/A   Clear
10:55 AM 39.2 °F 31.6 °F -0.4 °F 19% 30.01 in 10.0 mi NNW 12.7 mph - N/A   Clear
11:15 AM 39.2 °F 33.6 °F 1.4 °F 21% 30.00 in 10.0 mi North 8.1 mph - N/A   Clear
11:35 AM 41.0 °F 34.7 °F -0.4 °F 18% 30.01 in 10.0 mi NNE 10.4 mph - N/A   Clear
11:55 AM 41.0 °F 34.7 °F -0.4 °F 18% 30.00 in 10.0 mi NNW 10.4 mph - N/A   Clear
12:15 PM 42.8 °F 39.3 °F 1.4 °F 18% 30.00 in 10.0 mi North 5.8 mph - N/A   Clear
12:35 PM 44.6 °F 39.7 °F 1.4 °F 17% 29.99 in 10.0 mi NNE 9.2 mph - N/A   Clear
12:55 PM 44.6 °F 40.2 °F -0.4 °F 15% 29.99 in 10.0 mi North 8.1 mph - N/A   Clear
1:15 PM 44.6 °F 39.2 °F -0.4 °F 15% 29.99 in 10.0 mi NNE 10.4 mph 16.1 mph N/A   Clear
1:35 PM 44.6 °F 40.2 °F -0.4 °F 15% 29.99 in 10.0 mi NW 8.1 mph - N/A   Clear
1:55 PM 44.6 °F 40.7 °F -0.4 °F 15% 29.98 in 10.0 mi North 6.9 mph - N/A   Clear
2:15 PM 46.4 °F 43.5 °F -0.4 °F 14% 29.98 in 10.0 mi NW 5.8 mph - N/A   Clear
2:35 PM 46.4 °F - -2.2 °F 13% 29.98 in 10.0 mi Calm Calm - N/A   Clear
2:55 PM 48.2 °F - -0.4 °F 13% 29.98 in 10.0 mi NNW 5.8 mph - N/A   Clear
3:15 PM 46.4 °F 44.3 °F -2.2 °F 13% 29.97 in 10.0 mi North 4.6 mph - N/A   Clear
3:35 PM 48.2 °F - -2.2 °F 12% 29.97 in 10.0 mi NW 8.1 mph - N/A   Clear
3:55 PM 46.4 °F 45.2 °F -2.2 °F 13% 29.97 in 10.0 mi NE 3.5 mph - N/A   Clear
4:15 PM 48.2 °F - -0.4 °F 13% 29.97 in 10.0 mi NNE 3.5 mph - N/A   Clear
4:35 PM 48.2 °F - -2.2 °F 12% 29.97 in 10.0 mi North 5.8 mph - N/A   Clear
4:55 PM 48.2 °F - -2.2 °F 12% 29.97 in 10.0 mi North 3.5 mph - N/A   Clear
5:15 PM 46.4 °F 41.5 °F -2.2 °F 13% 29.97 in 10.0 mi NNW 10.4 mph - N/A   Clear
5:35 PM 46.4 °F 42.4 °F -2.2 °F 13% 29.97 in 10.0 mi North 8.1 mph - N/A   Clear
5:55 PM 44.6 °F 40.2 °F -2.2 °F 14% 29.98 in 10.0 mi North 8.1 mph - N/A   Clear
6:15 PM 42.8 °F 39.3 °F -2.2 °F 15% 29.98 in 10.0 mi North 5.8 mph - N/A   Clear
6:35 PM 41.0 °F 38.0 °F -2.2 °F 16% 29.99 in 10.0 mi North 4.6 mph - N/A   Clear
6:55 PM 39.2 °F 37.0 °F -2.2 °F 17% 30.00 in 10.0 mi North 3.5 mph - N/A   Clear
7:15 PM 39.2 °F 37.0 °F -2.2 °F 17% 30.01 in 10.0 mi NE 3.5 mph - N/A   Clear
7:35 PM 37.4 °F - -0.4 °F 20% 30.02 in 10.0 mi Calm Calm - N/A   Clear
7:55 PM 37.4 °F 33.8 °F -0.4 °F 20% 30.03 in 10.0 mi ENE 4.6 mph - N/A   Clear
8:15 PM 37.4 °F 34.9 °F -0.4 °F 20% 30.04 in 10.0 mi East 3.5 mph - N/A   Clear
8:35 PM 35.6 °F 32.8 °F -0.4 °F 22% 30.05 in 10.0 mi East 3.5 mph - N/A   Clear
8:55 PM 33.8 °F - -0.4 °F 23% 30.05 in 10.0 mi Calm Calm - N/A   Clear
9:15 PM 32.0 °F - 1.4 °F 27% 30.06 in 10.0 mi Calm Calm - N/A   Clear
9:35 PM 32.0 °F - 1.4 °F 27% 30.06 in 10.0 mi Calm Calm - N/A   Clear
9:55 PM 32.0 °F - 1.4 °F 27% 30.06 in 10.0 mi Calm Calm - N/A   Clear
10:15 PM 32.0 °F - 1.4 °F 27% 30.07 in 10.0 mi Calm Calm - N/A   Clear
10:35 PM 32.0 °F - -0.4 °F 25% 30.07 in 10.0 mi Calm Calm - N/A   Clear
10:55 PM 30.2 °F - -2.2 °F 25% 30.07 in 10.0 mi Calm Calm - N/A   Clear
11:15 PM 30.2 °F 24.3 °F -2.2 °F 25% 30.07 in 10.0 mi East 5.8 mph - N/A   Clear
11:35 PM 28.4 °F - -0.4 °F 29% 30.07 in 10.0 mi Calm Calm - N/A   Clear
11:55 PM 28.4 °F - -0.4 °F 29% 30.07 in 10.0 mi Calm Calm - N/A   Clear